Flag for China Weather past 2 weeks in Hangzhou, Zhejiang, China

Now
48 °F

Fog.


Feels Like: 44 °F
Forecast: 37 / 49 °F
Wind: 10 mph from East

Location: Hangzhou Airport

Current Time: Jan 26, 2015 at 11:40:07 PM

Latest Report: Jan 26, 2015 at 11:00 PM


Visibility: 2 mi

Pressure: 30.24 "Hg

Humidity: 76%

Dew point: 41 °F

Location of HangzhouLocation

Historic Weather in Hangzhou — Graph

°F

Hangzhou temperature yesterday

Maximum temperature yesterday: 61 °F (at 11:30 AM)
Minimum temperature yesterday: 46 °F (at 12:00 AM)
Average temperature yesterday: 54 °F

Past Weeks' High & Low Weather Summary

 TemperatureHumidityPressure
High66 °F (Jan 24, 2:30 PM)87% (Jan 13, 2:30 PM)30.60 "Hg (Jan 13, 2:30 PM)
Low34 °F (Jan 18, 5:30 AM)15% (Jan 19, 2:00 PM)30.09 "Hg (Jan 24, 2:30 PM)
Average46 °F64%30.31 "Hg
* Reported Jan 11 10:00 PM — Jan 26 10:30 PM, Hangzhou, Weather by CustomWeather, © 2014

Note: Actual official high and low records may vary slightly from our data, if they occured in-between our weather recording intervals... More about our weather records

Advertising

Hangzhou weather history for previous 24 hours

 ConditionsComfort  
Time TempWeatherWind HumidityBarometerVisibility
10:30 PM
Jan 26
48 °FFog.10 mph76%30.27 "Hg2 mi
10:00 PM50 °FPassing clouds.8 mph71%30.24 "Hg1 mi
9:30 PM50 °FPassing clouds.8 mph71%30.24 "Hg2 mi
9:00 PM50 °FPassing clouds.8 mph71%30.24 "Hg2 mi
8:30 PM50 °FPassing clouds.8 mph71%30.24 "Hg1 mi
8:00 PM50 °FPassing clouds.8 mph76%30.24 "Hg1 mi
7:30 PM50 °FFog.6 mph76%30.24 "Hg1 mi
7:00 PM50 °FFog.8 mph76%30.24 "Hg1 mi
6:30 PM50 °FFog.8 mph76%30.21 "Hg1 mi
6:00 PM50 °FFog.8 mph76%30.21 "Hg1 mi
5:30 PM50 °FPassing clouds.6 mph76%30.21 "Hg1 mi
5:00 PM52 °FPartly sunny.6 mph72%30.21 "Hg1 mi
4:30 PM52 °FPartly sunny.6 mph72%30.18 "Hg1 mi
4:00 PM52 °FPartly sunny.6 mph67%30.18 "Hg1 mi
3:30 PM52 °FPartly sunny.6 mph72%30.18 "Hg1 mi
3:00 PM52 °FPartly sunny.6 mph67%30.18 "Hg1 mi
2:30 PM52 °FLight rain. Partly sunny.6 mph72%30.18 "Hg1 mi
2:00 PM52 °FPartly sunny.6 mph67%30.18 "Hg1 mi
1:30 PM52 °FPartly sunny.3 mph67%30.18 "Hg1 mi
1:00 PM52 °FScattered clouds.3 mph67%30.21 "Hg1 mi
12:30 PM52 °FScattered clouds.1 mph67%30.21 "Hg1 mi
12:00 PM50 °FScattered clouds.3 mph71%30.24 "Hg1 mi
11:30 AM50 °FBroken clouds.3 mph71%30.24 "Hg1 mi
11:00 AM50 °FPartly sunny.1 mph71%30.24 "Hg1 mi
10:30 AM50 °FScattered clouds.1 mph71%30.27 "Hg1 mi
10:00 AM48 °FScattered clouds.3 mph76%30.27 "Hg1 mi
9:30 AM48 °FFog.3 mph76%30.24 "Hg1 mi
9:00 AM48 °FFog.3 mph76%30.24 "Hg1 mi
8:30 AM48 °FFog.3 mph76%30.24 "Hg1 mi
8:00 AM46 °FFog.6 mph82%30.27 "Hg1 mi
7:30 AM46 °FFog.6 mph82%30.27 "Hg1 mi
7:00 AM48 °FFog.6 mph76%30.24 "Hg1 mi
6:30 AM48 °FFog.8 mph76%30.24 "Hg1 mi
6:00 AM48 °FFog.6 mph76%30.24 "Hg1 mi
5:30 AM48 °FFog.3 mph76%30.21 "Hg1 mi
4:30 AM48 °FFog.1 mph76%30.21 "Hg1 mi
4:00 AM48 °FFog.1 mph76%30.21 "Hg1 mi
3:30 AM48 °FFog.1 mph76%30.21 "Hg1 mi
3:00 AM48 °FFog.3 mph76%30.24 "Hg1 mi
2:30 AM48 °FFog.6 mph76%30.24 "Hg1 mi
2:00 AM48 °FFog.6 mph76%30.24 "Hg1 mi
1:30 AM48 °FFog.3 mph76%30.24 "Hg1 mi
1:00 AM48 °FFog.3 mph76%30.24 "Hg1 mi
12:30 AM48 °FFog.6 mph76%30.24 "Hg1 mi
12:00 AM48 °FFog.6 mph76%30.24 "Hg1 mi
11:30 PM
Jan 25
48 °FHaze.6 mph76%30.24 "Hg1 mi
11:00 PM48 °FHaze.6 mph76%30.24 "Hg1 mi
Weather by CustomWeather, © 2014

See weather overviewHow to use our weather pages